Weather observations for the past three days for
Virginia Beach, Oceana, Naval Air Station
Imperial (Metric)
Date Time (edt) Wind (mph) Vis. (mi.) Weather Sky Cond. Temperature (ºF) Relative Humidity Wind Chill (°F) Heat Index (°F) Pressure Precipitation (in)
Air Dwpt 6 hour altimeter (in) sea level (mb) 1 hr 3 hr 6 hr
Max. Min.
17 18:56 S 10 10.00 Fair CLR 78.1 64.9 64% 80 30.17 1021.7
17 17:56 SE 15 10.00 Fair CLR 79 64 60% 81 30.15 1021.3
17 16:56 S 14 10.00 Partly Cloudy SCT040 81 64.9 58% 83 30.17 1021.9
17 15:56 S 13 10.00 A Few Clouds FEW040 81 66 61% 83 30.19 1022.5
17 14:56 S 14 10.00 A Few Clouds FEW050 82.9 66.9 59% 86 30.19 1022.7
17 13:56 SE 14 10.00 A Few Clouds FEW050 82.9 68 82.9 75 61% 86 30.2 1023.0
17 12:56 S 14 10.00 Partly Cloudy SCT050 82.9 69.1 63% 87 30.21 1023.3
17 11:56 SE 10 G 17 10.00 Partly Cloudy SCT070 81 69.1 67% 84 30.22 1023.6
17 10:56 S 6 10.00 A Few Clouds FEW037 81 66.9 62% 83 30.22 1023.7
17 09:56 SW 5 10.00 Mostly Cloudy SCT075 BKN250 79 68 69% 81 30.23 1023.8
17 08:56 S 7 10.00 Mostly Cloudy SCT070 BKN250 78.1 66 67% 80 30.23 1024.0
17 07:56 Vrbl 5 10.00 Fair CLR 75 70 75 64 84% 75 30.23 1023.9
17 06:56 Calm 10.00 Partly Cloudy SCT250 69.1 68 96% 30.22 1023.6
17 05:56 Calm 9.00 Shallow Fog FEW085 SCT250 66 66 100% 30.2 1023.0
17 04:56 Calm 10.00 A Few Clouds FEW085 FEW250 64.9 64.9 100% 30.19 1022.4
17 03:56 SE 3 10.00 Partly Cloudy FEW085 SCT250 66 66 100% 30.19 1022.4
17 02:56 SE 3 10.00 Overcast OVC085 69.1 66.9 93% 30.2 1022.7
17 01:56 Calm 10.00 A Few Clouds FEW080 FEW250 66.9 64.9 73.9 64.9 93% 30.21 1023.1
17 00:56 Calm 10.00 A Few Clouds FEW150 FEW250 66 64 93% 30.21 1023.1
16 23:56 SE 6 10.00 Partly Cloudy FEW150 SCT250 70 64.9 84% 30.2 1022.7
16 22:56 SE 6 10.00 Partly Cloudy FEW150 SCT250 70 64 82% 30.2 1022.7
16 21:56 SE 7 10.00 Partly Cloudy SCT250 71.1 62.1 73% 30.19 1022.6
16 20:56 SE 8 10.00 Partly Cloudy SCT250 71.1 63 76% 30.19 1022.4
16 19:56 SE 8 10.00 Mostly Cloudy BKN250 73.9 62.1 81 73.9 67% 30.18 1022.1
16 18:56 SE 12 10.00 Partly Cloudy SCT250 75.9 60.1 58% 78 30.18 1022.3
16 17:56 SE 10 10.00 A Few Clouds FEW250 78.1 60.1 54% 79 30.18 1022.1
16 16:56 SE 10 10.00 Mostly Cloudy FEW025 BKN250 79 61 54% 80 30.19 1022.4
16 15:56 SE 10 G 20 10.00 Mostly Cloudy FEW025 BKN250 81 62.1 53% 82 30.2 1022.7
16 14:56 SE 10 10.00 Mostly Cloudy FEW025 BKN250 79 64.9 62% 81 30.2 1022.8
16 13:56 SE 9 10.00 Mostly Cloudy FEW025 BKN250 80.1 64 81 73 58% 82 30.2 1023.0
16 12:56 E 8 10.00 Mostly Cloudy FEW025 BKN250 80.1 64.9 60% 82 30.21 1023.2
16 11:56 E 9 10.00 Mostly Cloudy FEW025 BKN250 79 66 65% 81 30.22 1023.5
16 10:56 Vrbl 7 10.00 Partly Cloudy SCT250 80.1 59 49% 81 30.21 1023.2
16 09:56 SE 5 10.00 Partly Cloudy SCT250 78.1 62.1 58% 80 30.2 1022.9
16 08:56 Calm 10.00 Partly Cloudy SCT250 77 64 64% 79 30.2 1022.7
16 07:56 Calm 10.00 A Few Clouds FEW250 73 69.1 73 62.1 87% 30.18 1022.3
16 06:56 Calm 10.00 A Few Clouds FEW250 66 66 100% 30.16 1021.5
16 05:56 Calm 8.00 Shallow Fog FEW250 64 64 100% 30.14 1020.8
16 04:56 Calm 8.00 Shallow Fog FEW250 63 63 100% 30.12 1020.1
16 03:56 Calm 10.00 Fair CLR 64 64 100% 30.11 1020.0
16 02:56 Calm 10.00 A Few Clouds FEW250 64 64 100% 30.11 1019.8
16 01:56 Calm 6.00 Fog/Mist CLR 64.9 64.9 73.9 64.9 100% 30.11 1019.7
16 00:56 Calm 10.00 Fair CLR 66 66 100% 30.11 1019.7
15 23:56 Calm 10.00 Fair CLR 66 66 100% 30.1 1019.6
15 22:56 Calm 10.00 Fair CLR 69.1 68 96% 30.09 1019.3
15 21:56 SE 3 10.00 A Few Clouds FEW250 71.1 68 90% 30.09 1019.1
15 20:56 E 6 10.00 Partly Cloudy FEW070 SCT250 72 69.1 91% 30.06 1018.2
15 19:56 E 8 10.00 Partly Cloudy FEW070 SCT250 73.9 68 82.9 73.9 82% 30.05 1017.9
15 18:56 E 8 10.00 A Few Clouds FEW050 FEW250 75.9 68 77% 77 30.04 1017.6
15 17:56 E 10 10.00 A Few Clouds FEW025 FEW250 78.1 70 76% 80 30.03 1017.0
15 16:56 E 9 10.00 A Few Clouds FEW025 FEW250 79 69.1 72% 82 30.01 1016.4
15 15:56 N 8 10.00 A Few Clouds FEW027 FEW250 82 68 63% 85 30 1016.1
15 14:56 N 14 10.00 A Few Clouds FEW027 FEW250 82 68 63% 85 30.01 1016.4
15 13:56 N 10 10.00 A Few Clouds FEW027 82 70 82 75.9 67% 86 30.01 1016.5
15 12:56 N 14 G 20 10.00 A Few Clouds FEW027 81 68 65% 84 30.01 1016.5
15 11:56 N 10 G 21 10.00 A Few Clouds FEW027 80.1 69.1 69% 83 30.01 1016.5
15 10:56 N 12 10.00 A Few Clouds FEW024 79 70 74% 82 29.99 1015.9
15 09:56 N 14 10.00 A Few Clouds FEW023 79 71.1 77% 82 29.97 1015.1
15 08:56 N 13 10.00 A Few Clouds FEW017 78.1 72 82% 80 29.95 1014.5
15 07:56 N 8 10.00 Partly Cloudy SCT014 75.9 75 75.9 66 97% 75 29.93 1013.8 0.16
15 06:56 NW 3 10.00 A Few Clouds FEW150 70 70 100% 29.91 1012.9
15 05:56 NW 5 10.00 A Few Clouds FEW300 66.9 66.9 100% 29.89 1012.3
15 04:56 W 5 10.00 A Few Clouds FEW300 68 66.9 96% 29.87 1011.6 0.16
15 03:56 S 6 9.00 Light Rain SCT075 BKN300 69.1 66.9 93% 29.86 1011.4
15 02:56 SE 8 7.00 Light Rain FEW022 BKN060 OVC120 68 68 100% 29.86 1011.5 0.16
15 01:56 S 12 3.00 Thunderstorm Heavy Rain Fog/Mist SCT041CB BKN060 OVC075 68 66.9 75.9 66.9 96% 29.86 1011.2 0.34 0.43
15 00:56 S 10 G 22 3.00 Thunderstorm in Vicinity Rain Fog/Mist SCT016CB SCT025 BKN050 69.1 64.9 87% 29.87 1011.7 0.09
14 23:56 S 3 10.00 Partly Cloudy SCT110 SCT200 73.9 68 82% 29.86 1011.3
14 22:56 S 5 10.00 Partly Cloudy FEW040 SCT200 73.9 69.1 85% 29.86 1011.3
14 21:56 S 5 10.00 Partly Cloudy SCT040 SCT200 73.9 69.1 85% 29.86 1011.2
14 20:56 S 6 10.00 A Few Clouds FEW040 75 69.1 82% 75 29.85 1010.9
14 19:56 SE 9 10.00 A Few Clouds FEW040 75.9 66.9 84.9 75.9 74% 77 29.84 1010.7
Date Time (edt) Wind (mph) Vis. (mi.) Weather Sky Cond. Air Dwpt Max. Min. Relative Humidity Wind Chill (°F) Heat Index (°F) altimeter (in) sea level (mb) 1 hr 3 hr 6 hr
6 hour
Temperature (ºF) Pressure Precipitation (in)